Hlavní strana
METAR-TAF:

METAR-TAF

Letiště :

Shelbyville Municipal Airport

Shelbyville, Indiana, Spojené státy americké

zeměpisná šířka: 39-35-08N, zeměpisná délka: 085-48-00W, výška: 245 m

Aktuální stav počasí

Zpráva byla vytvořena před 9 minutami, v 10:53 UTC
Severoseverozápadní vítr 4 kt
Teplota -2°C
Vlhkost vzduchu 80%
Tlak 1026 hPa
Viditelnost: 16.1 km
Jasno

METAR: KGEZ 251053Z AUTO 34004KT 10SM CLR M02/M05 A3029 RMK AO2 SLP261 T10221050

Čas: 06:02 (11:02 UTC)


TAF: chybějící

Stav a předpovědi počasí z více než 4 000 letišť (zprávy METAR a TAF).

Červené a žluté tečky na mapě představují dostupné meteorologické stanice.

Když kurzor umístíte na tečku, zobrazí se název stanice.

Pak kliknutím zobrazíte stav a předpověď počasí.

Chcete-li změnit mapu, kliknutím na zelené tlačítko se znaménkem +mapu přiblížíte, kliknutím na zelené tlačítko se znaménkem – mapu oddálíte a kliknutím na zelené šipky přejdete na sousední mapy.


METAR-TAF: